Погода в Россоши

Россия / Воронежская область     50°11′34″N   39°34′35″E
темп.,
°C
ветер,
м/с
пор.,
м/с
влажн.,
%
обл.,
%
осадки,
мм/ч
давл.,
гПа
погр.,
м
14 апреля, ср
ср1400:00+11всв1188100 0.0 102210
03:00+10ссв228958 0.0 102114
06:00+9всв356898 0.0 101975
09:00+14вюв594299 0.0 1019464
12:00+19юв6825100 0.0 10171367
15:00+17ю363897 0.0 1016684
18:00+18вюв51039100 0.0 1015424
21:00+14юв3950100 0.0 1015180
15 апреля, чт
чт1500:00+12юв2459100 0.0 101583
03:00+11ю2469100 0.0 101575
06:00+9юз249082 0.0 101593
09:00+13юз346110 0.0 1016632
12:00+17ююз45453 0.0 10151608
15:00+18ююз453935 0.0 10142105
18:00+17ююз3443100 0.0 1014184
21:00+14юз2463100 0.0 1015158
16 апреля, пт
пт1600:00+11юз377478 0.1 1015216
03:00+10ююз2282100 0.1 101531
06:00+9ю228959 0.0 101634
09:00+13ю346878 0.0 1017647
12:00+16ю57463 0.1 10161865
15:00+18ю563333 0.1 10162579
18:00+17ю343898 0.0 1016340
21:00+12зсз3763100 0.0 1017241
17 апреля, сб
сб1700:00+11зюз5768100 0.1 1018388
03:00+7юз6988100 1.8 1018581
06:00+7з3689100 5.7 1018357
09:00+9сз2377100 6.5 1018675
12:00+10вюв227399 0.2 1019618
15:00+12ююв3460100 2.3 10191010
18:00+12юз2361100 0.6 1019614
21:00+9зсз11745 0.9 102010
18 апреля, вс
вс1800:00+7ссв118130 0.0 102111
03:00+6св11855 0.0 102110
06:00+6св118577 0.0 102110
09:00+10св2367100 0.0 1021415
12:00+14в3451100 0.2 10201684
15:00+14в3349100 0.4 10201405
18:00+13всв225883 0.6 1020163
21:00+9св51084100 1.5 1021280